Home   Weather   Veracruz   Past weeks

Flag for Mexico Past Weather in Veracruz, Veracruz, Mexico — Yesterday and Last 2 Weeks

Now
73 °F

Clear.


Feels Like: 75 °F
Forecast: 70 / 79 °F
Wind: 8 mph from Northeast

Location: Gen. Heriberto Jara

Current Time: Jan 22, 2017 at 8:44:37 pm

Latest Report: Jan 22, 2017 at 7:43 pm


Visibility: 6 mi

Pressure: 29.99 "Hg

Humidity: 74%

Dew Point: 64 °F

Location of VeracruzLocation

Past Weather in Veracruz — Graph

°F

Veracruz Temperature Yesterday

Maximum temperature yesterday: 95 °F (at 3:42 pm)
Minimum temperature yesterday: 68 °F (at 5:41 am)
Average temperature yesterday: 82 °F

High & Low Weather Summary for the Past Weeks

 TemperatureHumidityPressure
High95 °F (Jan 21, 3:42 pm)100% (Jan 15, 10:44 pm)30.56 "Hg (Jan 15, 10:44 pm)
Low59 °F (Jan 9, 5:43 am)36% (Jan 21, 3:42 pm)29.54 "Hg (Jan 21, 5:44 pm)
Average74 °F76%30.01 "Hg
* Reported Jan 7 6:42 pm — Jan 22 6:40 pm, Veracruz, Weather by CustomWeather, © 2017

Note: Actual official high and low records may vary slightly from our data, if they occured in-between our weather recording intervals... More about our weather records

Advertising

Veracruz Weather History for the Previous 24 Hours

Scroll right to see more
 ConditionsComfort  
Time TempWeatherWind HumidityBarometerVisibility
6:40 pm
Sun, Jan 22
75 °FPassing clouds.12 mph69%29.95 "Hg6 mi
5:41 pm77 °FPassing clouds.17 mph69%29.90 "Hg6 mi
4:43 pm79 °FPassing clouds.12 mph65%29.90 "Hg5 mi
3:45 pm81 °FPassing clouds.25 mph66%29.87 "Hg5 mi
2:46 pm81 °FPassing clouds.23 mph66%29.78 "Hg6 mi
1:45 pm81 °FPassing clouds.23 mph66%29.86 "Hg6 mi
12:45 pm84 °FSunny.23 mph62%29.86 "Hg7 mi
11:44 am86 °FSunny.12 mph62%29.78 "Hg7 mi
10:45 am84 °FSunny.6 mph62%29.86 "Hg6 mi
9:43 am79 °FSunny.16 mph74%29.82 "Hg6 mi
8:43 am73 °FSunny.7 mph83%29.76 "Hg6 mi
7:44 am68 °FSunny.3 mph94%29.76 "Hg6 mi
6:44 am66 °FClear.5 mph94%29.73 "Hg5 mi
5:42 am68 °FClear.5 mph94%29.67 "Hg6 mi
10:42 pm
Sat, Jan 21
75 °FClear.5 mph74%29.70 "Hg7 mi
9:43 pm77 °FClear.12 mph69%29.70 "Hg7 mi
8:41 pm79 °FClear.10 mph65%29.62 "Hg7 mi
Weather by CustomWeather, © 2017

See weather overviewHow to use our weather pages